[[{"header":{"parameterUnit":"m.s-1","parameterCategory":1,"la1":30.2991,"la2":30.254,"lo1":-89.0895,"lo2":-89.0444,"dy":0.0017,"dx":0.0017,"nx":28,"ny":28,"refTime":"2024-02-08T03:00:00:Z","depth":0,"parameterNumber":2,"parameterNumberName":"U-component_of_WINDS"},"data":[0,0,0,0,0,0,0,0,0,0,0,0,0,0,0,0,0,0,0,0,0,0,0,0,0,0,0,0,0,0,0,0,0,0,0,0,0,0,0,0,0,0,0,0,0,0,0,0,0,0,0,0,0,0,0,0,0,0,-4.2765,-4.2766,0,-4.2793,-4.2793,-4.2793,-4.2758,-4.2756,-4.2755,-4.2754,-4.2781,-4.2783,-4.2785,0,0,0,0,0,0,0,0,0,0,0,0,0,-4.2684,-4.2685,-4.2765,-4.2766,-4.2766,-4.2793,-4.2793,-4.2793,-4.2758,-4.2756,-4.2755,-4.2753,-4.278,-4.2783,-4.2785,0,0,0,0,0,0,0,0,0,0,0,0,0,-4.2716,-4.2686,-4.2765,-4.2751,-4.275,-4.2793,-4.2793,-4.2794,-4.2758,-4.2756,-4.2754,-4.2752,-4.278,-4.2782,-4.2785,-4.2842,0,0,-4.2794,-4.2795,0,0,0,0,0,0,0,0,-4.2714,-4.2719,-4.2753,-4.2752,-4.2751,-4.277,-4.2774,-4.281,-4.2759,-4.2755,-4.2754,-4.2751,-4.2779,-4.2782,-4.2791,-4.2843,-4.2845,-4.2794,-4.2796,-4.2797,-4.2798,0,0,0,0,0,0,0,-4.2712,-4.2717,-4.2776,-4.2754,-4.2753,-4.2744,-4.2747,-4.2781,-4.2777,-4.2755,-4.2753,-4.2757,-4.2778,-4.2788,-4.2791,-4.2845,-4.2794,-4.2797,-4.2799,-4.28,-4.2948,-4.295,0,0,0,0,0,0,-4.2711,-4.2716,-4.2775,-4.2777,-4.2728,-4.2747,-4.275,-4.2766,-4.2777,-4.2777,-4.2758,-4.2755,-4.2784,-4.2788,-4.2792,-4.286,-4.2797,-4.28,-4.2802,-4.2946,-4.2948,-4.2951,0,0,0,0,0,0,-4.271,-4.2717,-4.2774,-4.2746,-4.2752,-4.2751,-4.2769,-4.2767,-4.2778,-4.2779,-4.2779,-4.2769,-4.2783,-4.2788,-4.2831,-4.286,-4.2801,-4.2804,-4.2943,-4.2946,-4.2949,-4.2995,0,0,0,0,0,0,-4.2707,-4.2716,-4.2737,-4.2747,-4.2754,-4.2811,-4.2771,-4.2769,-4.2783,-4.2779,-4.2789,-4.2789,-4.2782,-4.2826,-4.2833,-4.2863,-4.2806,-4.294,-4.2944,-4.2948,-4.2991,-4.3,-4.3007,0,0,0,0,0,-4.2705,-4.2748,-4.2738,-4.2746,-4.278,-4.2813,-4.2817,-4.2808,-4.2785,-4.2807,-4.2808,-4.2789,-4.2857,-4.2831,-4.2839,-4.287,-4.2938,-4.2943,-4.2948,-4.2987,-4.2998,-4.3007,0,0,0,0,0,0,-4.2741,-4.2749,-4.2738,-4.2786,-4.2799,-4.2807,-4.2833,-4.2819,-4.2839,-4.2834,-4.2822,-4.2825,-4.287,-4.2875,-4.2846,-4.2927,-4.2894,-4.29,-4.2921,-4.2931,-4.2939,-4.2936,-4.2809,0,0,0,0,0,-4.2755,-4.2781,-4.2787,-4.2829,-4.2836,-4.2834,-4.2848,-4.284,-4.2853,-4.2858,-4.2863,-4.2876,-4.2901,-4.2917,-4.2939,-4.2993,-4.2995,-4.3018,-4.3027,-4.3033,-4.3038,-4.3068,-4.3078,-4.2967,-4.2967,-4.2967,0,0,-4.2783,-4.2791,-4.2807,-4.2836,-4.2845,-4.2873,-4.2838,-4.2869,-4.2889,-4.2863,-4.2902,-4.2907,-4.2922,-4.297,-4.2992,-4.2975,-4.307,-4.3039,-4.3045,-4.3046,-4.3074,-4.3085,-4.3094,-4.297,-4.2969,-4.2969,0,0,-4.2848,-4.2857,-4.2893,-4.2904,-4.2919,-4.2918,-4.2927,-4.2938,-4.294,-4.2981,-4.2962,-4.2988,-4.303,-4.3041,-4.3052,-4.3127,-4.311,-4.3135,-4.3176,-4.3205,-4.3214,-4.3222,-4.3248,-4.3257,-4.3141,-4.3141,-4.3141,0,-4.288,-4.2921,-4.2913,-4.2945,-4.2959,-4.2939,-4.2976,-4.2987,-4.3009,-4.3019,-4.3001,-4.3055,-4.3064,-4.3115,-4.3134,-4.3144,-4.3154,-4.3132,-4.3213,-4.3221,-4.3228,-4.3253,-4.3263,-4.3144,-4.3143,-4.3143,-4.3143,0,-4.296,-4.2989,-4.3017,-4.304,-4.3057,-4.3092,-4.309,-4.3109,-4.3101,-4.3103,-4.3146,-4.3156,-4.3181,-4.3193,-4.3185,-4.3244,-4.3234,-4.3215,-4.3181,-4.3242,-4.3265,-4.3274,-4.3148,-4.3147,-4.3146,-4.3145,0,0,-4.3043,-4.3065,-4.3075,-4.3086,-4.3104,-4.3126,-4.3162,-4.3187,-4.3203,-4.3221,-4.325,-4.3288,-4.3272,-4.3285,-4.3279,-4.3306,-4.3364,-4.3284,-4.3284,-4.3297,-4.343,-4.3442,-4.3453,-4.3355,-4.3357,-4.3358,-4.3429,0,-4.3108,-4.3168,-4.3164,-4.3221,-4.3248,-4.3232,-4.3263,-4.3278,-4.3281,-4.3305,-4.331,-4.3337,-4.3314,-4.3322,-4.3347,-4.3352,-4.339,-4.3347,-4.3381,-4.3382,-4.3375,-4.3466,-4.3478,-4.3543,-4.3438,-4.3439,-4.344,0,-4.3189,-4.3211,-4.327,-4.3287,-4.3298,-4.3325,-4.335,-4.3373,-4.3391,-4.3392,-4.3409,-4.34,-4.3437,-4.3406,-4.3456,-4.3427,-4.3441,-4.3446,-4.3449,-4.3449,-4.3413,-4.3466,-4.3564,-4.3573,-4.3455,-4.3454,-4.3453,0,-4.3242,-4.3287,-4.3329,-4.3339,-4.3359,-4.3379,-4.3388,-4.3404,-4.3421,-4.3443,-4.3454,-4.348,-4.3494,-4.3515,-4.3513,-4.3491,-4.3565,-4.3533,-4.3566,-4.3567,-4.3579,-4.3578,-4.3679,-4.3594,-4.3593,-4.3593,-4.3593,0,-4.3313,-4.3349,-4.3353,-4.3378,-4.342,-4.3417,-4.3459,-4.3466,-4.3481,-4.3509,-4.3498,-4.3523,-4.3521,-4.3548,-4.3548,-4.359,-4.3597,-4.3599,-4.3597,-4.3598,-4.3598,-4.3605,-4.3599,-4.3596,-4.3595,-4.3595,-4.3594,0,-4.3377,-4.3381,-4.3425,-4.3443,-4.3448,-4.3478,-4.3493,-4.3517,-4.3522,-4.3557,-4.3565,-4.3572,-4.3603,-4.3606,-4.3641,-4.3642,-4.3692,-4.3687,-4.3686,-4.3684,-4.3717,-4.3713,-4.3823,-4.3837,-4.3745,-4.3746,-4.3747,0,-4.342,-4.3448,-4.3469,-4.3487,-4.3498,-4.3527,-4.3545,-4.3545,-4.3563,-4.3588,-4.361,-4.3641,-4.3665,-4.3716,-4.3724,-4.3752,-4.3747,-4.3784,-4.375,-4.3751,-4.3745,-4.3743,-4.3745,-4.3789,-4.379,-4.3791,-4.3791,0,-4.3495,-4.3497,-4.3523,-4.3551,-4.3572,-4.3594,-4.3614,-4.363,-4.3632,-4.3655,-4.3687,-4.3706,-4.3744,-4.3774,-4.3803,-4.3813,-4.3803,-4.3803,-4.3811,-4.381,-4.3808,-4.3809,-4.3701,-4.3799,-4.3798,-4.3798,-4.3797,-4.3797,-4.3549,-4.3574,-4.3594,-4.3624,-4.364,-4.366,-4.3684,-4.3694,-4.3721,-4.3752,-4.3751,-4.3787,-4.3807,-4.3844,-4.3857,-4.3886,-4.3873,-4.3886,-4.3889,-4.3892,-4.3895,-4.3807,-4.3891,-4.3891,-4.3891,-4.3891,-4.3891,0,-4.3623,-4.3636,-4.3664,-4.3693,-4.3718,-4.3709,-4.3732,-4.3752,-4.3784,-4.3804,-4.3829,-4.3868,-4.3898,-4.3911,-4.3942,-4.3962,-4.3958,-4.397,-4.3967,-4.397,-4.3905,-4.3893,-4.3973,-4.3973,-4.3973,-4.3973,-4.3972,-4.3972,-4.3664,-4.3706,-4.3711,-4.3761,-4.3774,-4.381,-4.3824,-4.3843,-4.3859,-4.3903,-4.3928,-4.3937,-4.3955,-4.3988,-4.4016,-4.4019,-4.403,-4.4043,-4.4044,-4.3982,-4.3974,-4.3966,-4.3955,-4.4046,-4.4046,-4.4106,-4.4107,-4.4107]},{"header":{"parameterUnit":"m.s-1","parameterCategory":1,"la1":30.2991,"la2":30.254,"lo1":-89.0895,"lo2":-89.0444,"dy":0.0017,"dx":0.0017,"nx":28,"ny":28,"refTime":"2024-02-08T03:00:00:Z","depth":0,"parameterNumber":3,"parameterNumberName":"V-component_of_WINDS"},"data":[0,0,0,0,0,0,0,0,0,0,0,0,0,0,0,0,0,0,0,0,0,0,0,0,0,0,0,0,0,0,0,0,0,0,0,0,0,0,0,0,0,0,0,0,0,0,0,0,0,0,0,0,0,0,0,0,0,0,1.979,1.9791,0,1.9837,1.9837,1.9838,1.9921,1.9923,1.9924,1.9926,1.997,1.997,1.997,0,0,0,0,0,0,0,0,0,0,0,0,0,1.9773,1.9773,1.979,1.9791,1.9791,1.9837,1.9837,1.9838,1.9921,1.9923,1.9925,1.9927,1.997,1.997,1.997,0,0,0,0,0,0,0,0,0,0,0,0,0,1.9796,1.9773,1.979,1.9838,1.9843,1.9837,1.9837,1.9838,1.9921,1.9923,1.9925,1.9928,1.9971,1.997,1.997,1.9919,0,0,1.9968,1.9968,0,0,0,0,0,0,0,0,1.9794,1.9796,1.9831,1.9835,1.984,1.9876,1.9848,1.9865,1.992,1.9891,1.9926,1.9929,1.9937,1.9939,1.9943,1.9921,1.9923,1.9968,1.9968,1.9968,1.9968,0,0,0,0,0,0,0,1.9793,1.9795,1.9809,1.9831,1.9837,1.9858,1.9863,1.9851,1.99,1.9894,1.99,1.9904,1.994,1.9943,1.9944,1.9923,1.9968,1.9968,1.9968,1.9967,1.9866,1.9863,0,0,0,0,0,0,1.9784,1.9793,1.9807,1.981,1.9823,1.9856,1.9863,1.9862,1.99,1.9908,1.9902,1.9908,1.9942,1.9945,1.9946,1.9892,1.9968,1.9967,1.9967,1.9868,1.9865,1.9862,0,0,0,0,0,0,1.9784,1.9785,1.9805,1.9803,1.9808,1.9854,1.9852,1.9862,1.9865,1.9907,1.9916,1.9897,1.9944,1.9947,1.9926,1.9894,1.9967,1.9967,1.9871,1.9867,1.9864,1.978,0,0,0,0,0,0,1.9783,1.9784,1.9765,1.9802,1.9807,1.9784,1.985,1.9861,1.9864,1.9872,1.9904,1.9911,1.9946,1.9926,1.9925,1.9895,1.9966,1.9874,1.9869,1.9865,1.9786,1.9774,1.9764,0,0,0,0,0,1.9782,1.9739,1.9764,1.9765,1.9785,1.9782,1.9785,1.9828,1.9861,1.9843,1.987,1.991,1.9897,1.9923,1.9923,1.9892,1.9876,1.9871,1.9865,1.9791,1.9777,1.9764,0,0,0,0,0,0,1.9695,1.9744,1.9773,1.974,1.9757,1.9796,1.9775,1.981,1.9817,1.9824,1.9875,1.9882,1.9855,1.9871,1.9899,1.9846,1.9893,1.9887,1.9837,1.9823,1.9813,1.981,1.9966,0,0,0,0,0,1.9672,1.9667,1.971,1.9677,1.9684,1.9727,1.9728,1.976,1.9778,1.9785,1.9811,1.9827,1.9827,1.9826,1.9828,1.9789,1.9798,1.9767,1.9756,1.9747,1.9742,1.9725,1.9712,1.9845,1.9845,1.9845,0,0,1.9625,1.9651,1.9644,1.966,1.9677,1.967,1.9733,1.9722,1.9718,1.9783,1.9767,1.9786,1.9807,1.9778,1.9766,1.979,1.9707,1.974,1.9732,1.9732,1.9718,1.9705,1.9694,1.9841,1.9842,1.9842,0,0,1.9535,1.9554,1.953,1.9546,1.9571,1.9601,1.9595,1.963,1.9646,1.963,1.968,1.9675,1.9673,1.9687,1.9694,1.9613,1.965,1.9611,1.9554,1.9537,1.9527,1.9518,1.9491,1.948,1.9606,1.9606,1.9606,0,1.9473,1.9466,1.9513,1.9501,1.9507,1.9567,1.9544,1.9557,1.958,1.9583,1.9611,1.9612,1.963,1.9606,1.9587,1.9589,1.9585,1.9609,1.9525,1.9516,1.9508,1.9483,1.9473,1.9601,1.9602,1.9602,1.9602,0,1.9389,1.9383,1.9361,1.9385,1.9388,1.937,1.9415,1.9413,1.9444,1.9471,1.9455,1.948,1.9489,1.9485,1.9515,1.9466,1.9481,1.9515,1.9564,1.949,1.9468,1.9458,1.9594,1.9596,1.9597,1.9599,0,0,1.9246,1.9298,1.9289,1.9302,1.9334,1.9331,1.9316,1.9327,1.9325,1.9339,1.9329,1.9327,1.9361,1.9368,1.94,1.9385,1.9322,1.9422,1.9423,1.9404,1.9272,1.9247,1.9235,1.9347,1.9345,1.9344,1.9271,0,1.9165,1.9144,1.9187,1.9156,1.9152,1.921,1.9198,1.9216,1.9241,1.9242,1.9269,1.9268,1.9311,1.9317,1.9304,1.9332,1.9296,1.9338,1.9338,1.9338,1.9333,1.9223,1.9196,1.9126,1.9262,1.9261,1.926,0,1.9068,1.908,1.9049,1.9086,1.9086,1.9074,1.9089,1.9088,1.9111,1.9131,1.9141,1.9179,1.9168,1.9213,1.9199,1.9227,1.9229,1.9243,1.9242,1.9245,1.9295,1.9224,1.9105,1.9095,1.9246,1.9247,1.9248,0,1.897,1.8978,1.8961,1.897,1.9012,1.9003,1.902,1.9045,1.905,1.9062,1.9066,1.9076,1.9082,1.9089,1.9129,1.9158,1.9111,1.9159,1.9127,1.9126,1.9116,1.9116,1.8996,1.9114,1.9114,1.9114,1.9115,0,1.8876,1.8855,1.8918,1.8908,1.8887,1.8936,1.8914,1.8936,1.8959,1.8954,1.9004,1.8999,1.9051,1.9052,1.9083,1.9068,1.9069,1.9085,1.9094,1.9082,1.908,1.9085,1.9092,1.9112,1.9112,1.9113,1.9113,0,1.8763,1.8804,1.879,1.8832,1.8842,1.8825,1.8861,1.8854,1.8882,1.8876,1.8878,1.8922,1.8926,1.8967,1.8978,1.8999,1.8972,1.8989,1.8965,1.8971,1.8937,1.8941,1.8818,1.8806,1.8929,1.8928,1.8927,0,1.8702,1.8688,1.8729,1.873,1.8746,1.8746,1.8752,1.88,1.8804,1.8831,1.882,1.8828,1.8837,1.8839,1.8873,1.8882,1.8901,1.8857,1.8903,1.8892,1.8903,1.8904,1.8904,1.8848,1.8847,1.8845,1.8844,0,1.8589,1.8611,1.8618,1.8632,1.8638,1.8651,1.8667,1.8665,1.8719,1.872,1.8725,1.8732,1.8745,1.8753,1.8769,1.8786,1.8824,1.883,1.8823,1.8811,1.8799,1.8807,1.8941,1.8832,1.8834,1.8835,1.8835,1.8836,1.8502,1.8493,1.8522,1.8528,1.8546,1.856,1.8556,1.8585,1.8591,1.8607,1.8634,1.8635,1.8661,1.8686,1.8701,1.8702,1.8725,1.8715,1.8712,1.871,1.8704,1.8797,1.8705,1.8705,1.8706,1.8706,1.8706,0,1.8394,1.8416,1.8421,1.8444,1.8449,1.8485,1.8506,1.8508,1.8509,1.8529,1.8538,1.8545,1.8552,1.8587,1.8599,1.8594,1.8612,1.8595,1.8597,1.8601,1.8682,1.8688,1.8581,1.8581,1.8581,1.8581,1.8581,1.8581,1.8339,1.8327,1.8352,1.8349,1.8371,1.8374,1.8383,1.8397,1.8414,1.8419,1.8427,1.845,1.8477,1.8491,1.85,1.851,1.8513,1.8491,1.8507,1.8583,1.8595,1.8606,1.8612,1.8491,1.8491,1.8426,1.8426,1.8425]}]]